Rome, GA

7:51 PM EST on December 10, 2017 (GMT -0500)
Russell

Weather History for KRMG - August, 2013

Change the Weather History Date:

Thursday, August 1, 2013

  Actual Average Record
Temperature  
Mean Temperature 80 °F 80 °F  
Max Temperature 89 °F 90 °F 99 °F (2006)
Min Temperature 70 °F 69 °F 57 °F (1997)
Cooling Degree Days 15 15  
Month to date cooling degree days 15 15  
Year to date cooling degree days 909 959  
Since 1 June cooling degree days 766 791  
Growing Degree Days 30 (Base 50)    
Moisture  
Dew Point 71 °F    
Average Humidity 78    
Maximum Humidity 100    
Minimum Humidity 55    
Precipitation  
Precipitation T in 0.10 in 1.55 in (2003)
Month to date precipitation T 0.10  
Year to date precipitation 26.18 31.39  
Sea Level Pressure  
Sea Level Pressure 29.96 in    
Wind  
Wind Speed 4 mph (WNW)    
Max Wind Speed 15 mph    
Max Gust Speed 18 mph    
Visibility 9 miles    
Events Rain    
T = Trace of Precipitation, MM = Missing Value Source: NWS Daily Summary

Daily Weather History Graph

Daily Weather History Graph

Search for Another Location

Airport or City:

Trip Planner

Search our weather history database for the weather conditions in past years. The results will help you decide how hot, cold, wet, or windy it might be!

Date:

Astronomy

Aug. 01, 2013 Rise Set
Actual Time 6:51 AM EDT 8:41 PM EDT
Civil Twilight 6:24 AM EDT 9:09 PM EDT
Nautical Twilight 5:50 AM EDT 9:42 PM EDT
Astronomical Twilight 5:15 AM EDT 10:17 PM EDT
Moon 2:28 AM EDT (8/1) 4:48 PM EDT (8/1)
Length of Visible Light 14h 45m
Length of Day
13h 50m
Waning Crescent, 23% of the Moon is Illuminated
Aug 1
Waning Crescent
Aug 6
New
Aug 14
First Quarter
Aug 20
Full
Aug 28
Last Quarter

Hourly Weather History & Observations

Time (EDT) Temp. Heat Index Dew Point Humidity Pressure Visibility Wind Dir Wind Speed Gust Speed Precip Events Conditions
12:00 AM 73.4 °F - 73.4 °F 100% 30.00 in 8.0 mi Calm Calm - 0.01 in Rain Light Rain
12:11 AM 73.4 °F - 71.6 °F 94% 30.00 in 10.0 mi SSW 5.8 mph - 0.01 in Rain Light Rain
12:53 AM 72.0 °F - 72.0 °F 100% 29.96 in 10.0 mi Calm Calm - 0.01 in   Mostly Cloudy
1:09 AM 73.4 °F - 71.6 °F 94% 29.98 in 10.0 mi ENE 3.5 mph - N/A   Overcast
1:53 AM 71.1 °F - 71.1 °F 100% 29.96 in 10.0 mi Calm Calm - N/A   Mostly Cloudy
2:51 AM 71.6 °F - 71.6 °F 100% 29.98 in 10.0 mi Calm Calm - N/A   Mostly Cloudy
2:53 AM 71.1 °F - 71.1 °F 100% 29.96 in 10.0 mi SW 3.5 mph - N/A   Mostly Cloudy
3:00 AM 71.6 °F - 71.6 °F 100% 29.99 in 10.0 mi Calm Calm - N/A   Scattered Clouds
3:08 AM 71.6 °F - 71.6 °F 100% 29.99 in 10.0 mi Calm Calm - N/A   Mostly Cloudy
3:29 AM 71.6 °F - 71.6 °F 100% 29.98 in 10.0 mi Calm Calm - N/A   Overcast
3:53 AM 72.0 °F - 72.0 °F 100% 29.95 in 10.0 mi Calm Calm - N/A   Overcast
4:31 AM 71.6 °F - 71.6 °F 100% 29.97 in 10.0 mi Calm Calm - N/A   Mostly Cloudy
4:53 AM 72.0 °F - 71.1 °F 97% 29.94 in 9.0 mi Calm Calm - N/A   Partly Cloudy
5:18 AM 71.6 °F - 71.6 °F 100% 29.96 in 2.0 mi Calm Calm - N/A   Partly Cloudy
5:21 AM 69.8 °F - 69.8 °F 100% 29.96 in 1.0 mi Calm Calm - N/A   Mist
5:31 AM 71.6 °F - 71.6 °F 100% 29.96 in 2.0 mi Calm Calm - N/A   Partly Cloudy
5:38 AM 69.8 °F - 69.8 °F 100% 29.97 in 3.0 mi Calm Calm - N/A   Scattered Clouds
5:53 AM 71.1 °F - 71.1 °F 100% 29.95 in 10.0 mi Calm Calm - N/A   Scattered Clouds
6:43 AM 71.6 °F - 71.6 °F 100% 29.98 in 9.0 mi Calm Calm - N/A   Overcast
6:53 AM 72.0 °F - 71.1 °F 97% 29.96 in 10.0 mi Calm Calm - N/A   Overcast
7:53 AM 72.0 °F - 72.0 °F 100% 29.96 in 10.0 mi Calm Calm - N/A   Mostly Cloudy
8:25 AM 73.4 °F - 71.6 °F 94% 29.99 in 10.0 mi West 3.5 mph - N/A   Mostly Cloudy
8:53 AM 73.9 °F - 72.0 °F 93% 29.96 in 10.0 mi SW 4.6 mph - N/A   Overcast
9:06 AM 73.4 °F - 71.6 °F 94% 29.99 in 10.0 mi Calm Calm - N/A   Overcast
9:53 AM 75.0 °F - 72.0 °F 90% 29.97 in 10.0 mi WSW 3.5 mph - N/A   Overcast
10:11 AM 75.2 °F - 71.6 °F 89% 30.00 in 10.0 mi West 3.5 mph - N/A   Overcast
10:25 AM 75.2 °F - 71.6 °F 89% 30.00 in 10.0 mi West 3.5 mph - N/A   Overcast
10:53 AM 78.1 °F - 73.0 °F 84% 29.97 in 10.0 mi WNW 4.6 mph - N/A   Overcast
11:10 AM 78.8 °F - 71.6 °F 78% 30.00 in 10.0 mi Calm Calm - N/A   Overcast
11:53 AM 80.1 °F 84.2 °F 73.0 °F 79% 29.97 in 10.0 mi Calm Calm - N/A   Overcast
12:53 PM 81.0 °F 85.8 °F 73.0 °F 77% 29.96 in 10.0 mi West 4.6 mph - N/A   Mostly Cloudy
1:53 PM 84.9 °F 90.1 °F 71.1 °F 63% 29.94 in 10.0 mi North 9.2 mph - N/A   Mostly Cloudy
2:53 PM 87.1 °F 92.8 °F 71.1 °F 59% 29.93 in 10.0 mi West 6.9 mph 16.1 mph N/A   Scattered Clouds
3:53 PM 87.1 °F 92.0 °F 70.0 °F 57% 29.91 in 10.0 mi North 8.1 mph - 0.00 in   Mostly Cloudy
4:53 PM 88.0 °F 92.9 °F 70.0 °F 55% 29.91 in 10.0 mi NNW 12.7 mph - N/A   Partly Cloudy
5:53 PM 87.1 °F 92.0 °F 70.0 °F 57% 29.91 in 10.0 mi North 9.2 mph - N/A   Mostly Cloudy
6:53 PM 86.0 °F 90.1 °F 69.1 °F 57% 29.91 in 10.0 mi North 6.9 mph - N/A   Clear
7:53 PM 84.0 °F 88.4 °F 70.0 °F 63% 29.92 in 10.0 mi NNE 3.5 mph - N/A   Clear
8:53 PM 75.9 °F - 72.0 °F 87% 29.94 in 10.0 mi Calm Calm - N/A   Clear
9:53 PM 73.9 °F - 72.0 °F 93% 29.95 in 10.0 mi Calm Calm - N/A   Clear
10:53 PM 75.0 °F - 71.1 °F 87% 29.96 in 10.0 mi Calm Calm - N/A   Clear
11:53 PM 72.0 °F - 71.1 °F 97% 29.96 in 9.0 mi Calm Calm - N/A   Clear